Location: Newark
(25.0000°N, 73.5000°E)
Time: 20:11:34
(UTC+00:00)

A-11 Canister half - All Passes

Search period start: 29 July 2021 00:00
Search period end: 08 August 2021 00:00
Orbit: 1513 x 1687 km, 47.2° (Epoch: 28 July)

Date Brightness Start Highest point End Pass type
(mag) Time Alt. Az. Time Alt. Az. Time Alt. Az.
29 Jul - 09:53:03 10° S 10:01:13 33° SE 10:09:39 10° ENE daylight
29 Jul - 11:56:09 10° WSW 12:05:43 66° NW 12:15:41 10° NE daylight
29 Jul - 14:04:40 10° WNW 14:12:28 25° NNW 14:20:27 10° NNE visible
29 Jul - 16:14:14 10° NW 16:21:15 20° N 16:28:18 10° NE visible
29 Jul - 18:19:43 10° NW 18:29:09 41° NNE 18:38:29 10° E visible
29 Jul - 20:24:36 10° NW 20:34:39 66° SW 20:44:28 10° SSE visible
29 Jul - 22:35:00 10° W 22:38:34 12° WSW 22:42:08 10° SW night (unlit)
30 Jul - 09:30:27 10° S 09:38:22 30° SE 09:46:28 10° ENE daylight
30 Jul - 11:33:10 10° SW 11:42:45 70° NW 11:52:44 10° NE daylight
30 Jul - 13:41:27 10° WNW 13:49:21 26° NNW 13:57:27 10° NNE daylight
30 Jul - 15:51:09 10° NW 15:58:04 20° N 16:05:03 10° NE visible
30 Jul - 17:56:47 10° NW 18:06:06 39° NNE 18:15:20 10° E visible
30 Jul - 20:01:36 10° NW 20:11:43 71° SW 20:21:37 10° SE visible
30 Jul - 22:11:03 10° W 22:15:42 14° WSW 22:20:19 10° SSW night (unlit)
31 Jul - 09:07:53 10° S 09:15:29 28° SE 09:23:17 10° ENE daylight
31 Jul - 11:10:13 10° SW 11:19:47 75° NW 11:29:47 10° NE daylight
31 Jul - 13:18:15 10° WNW 13:26:14 27° NNW 13:34:29 10° NNE daylight
31 Jul - 15:28:03 10° NW 15:34:54 20° N 15:41:49 10° NE visible
31 Jul - 17:33:51 10° NW 17:43:02 37° NNE 17:52:09 10° E visible
31 Jul - 19:38:36 10° NW 19:48:46 76° SW 19:58:45 10° SE visible
31 Jul - 21:47:21 10° W 21:52:49 16° WSW 21:58:14 10° SSW night (unlit)
01 Aug - 08:45:23 10° S 08:52:38 25° SE 09:00:02 10° ENE daylight
01 Aug - 10:47:17 10° SW 10:56:50 80° NW 11:06:49 10° NE daylight
01 Aug - 12:55:03 10° W 13:03:09 28° NNW 13:11:30 10° NNE daylight
01 Aug - 15:04:57 10° NW 15:11:44 20° N 15:18:35 10° NE visible
01 Aug - 17:10:55 10° NW 17:19:58 35° NNE 17:28:58 10° E visible
01 Aug - 19:15:37 10° NW 19:25:50 81° SW 19:35:52 10° SE visible
01 Aug - 21:23:49 10° W 21:29:57 18° WSW 21:36:00 10° SSW night (unlit)
02 Aug - 08:22:54 10° S 08:29:46 23° SE 08:36:46 10° ENE daylight
02 Aug - 10:24:21 10° SW 10:33:53 84° NW 10:43:51 10° NE daylight
02 Aug - 12:31:52 10° W 12:40:04 30° NNW 12:48:32 10° NNE daylight
02 Aug - 14:41:50 10° NW 14:48:34 19° N 14:55:22 10° NE visible
02 Aug - 16:48:00 10° NW 16:56:54 33° NNE 17:05:46 10° E visible
02 Aug - 18:52:38 10° NW 19:02:52 86° SW 19:12:58 10° SE visible
02 Aug - 21:00:22 10° W 21:07:03 20° SW 21:13:41 10° SSW visible
03 Aug - 08:00:30 10° SSE 08:06:54 21° SE 08:13:26 10° E daylight
03 Aug - 10:01:27 10° SW 10:10:58 90° NW 10:20:54 10° NE daylight
03 Aug - 12:08:41 10° W 12:16:59 31° NNW 12:25:34 10° NE daylight
03 Aug - 14:18:42 10° NW 14:25:23 19° N 14:32:10 10° NE visible
03 Aug - 16:25:03 10° NW 16:33:49 32° NNE 16:42:34 10° E visible
03 Aug - 18:29:40 10° NW 18:39:55 89° NE 18:50:03 10° SE visible
03 Aug - 20:37:00 10° WNW 20:44:10 22° SW 20:51:16 10° S visible
04 Aug - 07:38:10 10° SSE 07:44:03 18° ESE 07:50:02 10° E daylight
04 Aug - 09:38:34 10° SW 09:48:02 85° SE 09:57:55 10° NE daylight
04 Aug - 11:45:31 10° W 11:53:55 32° NNW 12:02:37 10° NE daylight
04 Aug - 13:55:34 10° NW 14:02:13 19° N 14:08:59 10° NE visible
04 Aug - 16:02:07 10° NNW 16:10:43 30° NNE 16:19:20 10° E visible
04 Aug - 18:06:43 10° NW 18:16:58 84° NE 18:27:06 10° SE visible
04 Aug - 20:13:42 10° WNW 20:21:17 24° SW 20:28:48 10° S visible
05 Aug - 07:15:54 10° SSE 07:21:12 16° ESE 07:26:33 10° E daylight
05 Aug - 09:15:42 10° SW 09:25:07 80° SE 09:34:56 10° NE daylight
05 Aug - 11:22:22 10° W 11:30:51 34° NNW 11:39:40 10° NE daylight
05 Aug - 13:32:24 10° NW 13:39:02 19° N 13:45:48 10° NE daylight
05 Aug - 15:39:11 10° NNW 15:47:38 29° NNE 15:56:05 10° E visible
05 Aug - 17:43:45 10° NW 17:53:59 79° NE 18:04:08 10° SE visible
05 Aug - 19:50:25 10° WNW 19:58:23 27° SW 20:06:18 10° S visible
06 Aug - 06:53:48 10° SSE 06:58:21 14° ESE 07:02:56 10° E daylight
06 Aug - 08:52:51 10° SW 09:02:13 75° SE 09:11:57 10° NE daylight
06 Aug - 10:59:14 10° W 11:07:49 36° NNW 11:16:43 10° NE daylight
06 Aug - 13:09:15 10° NW 13:15:53 19° N 13:22:39 10° NE daylight
06 Aug - 15:16:15 10° NNW 15:24:31 28° NNE 15:32:49 10° ENE visible
06 Aug - 17:20:49 10° NW 17:31:01 75° NE 17:41:09 10° SE visible
06 Aug - 19:27:13 10° WNW 19:35:30 29° SW 19:43:44 10° S visible
07 Aug - 06:31:54 10° SE 06:35:29 13° ESE 06:39:07 10° E daylight
07 Aug - 08:30:01 10° SW 08:39:19 70° SE 08:48:57 10° NE daylight
07 Aug - 10:36:07 10° W 10:44:46 38° NNW 10:53:46 10° NE daylight
07 Aug - 12:46:04 10° NW 12:52:43 20° N 12:59:31 10° NE daylight
07 Aug - 14:53:19 10° NNW 15:01:24 27° NNE 15:09:33 10° ENE visible
07 Aug - 16:57:53 10° NW 17:08:03 70° NE 17:18:09 10° SE visible
07 Aug - 19:04:01 10° WNW 19:12:36 32° SW 19:21:07 10° S visible
